Location: *
(51.1248°S, 108.4023°W)
Time: 02:53:18
(UTC+00:00)

Cosmos 2074 Rocket - Visible Passes

Search period start: 23 October 2021 00:00
Search period end: 02 November 2021 00:00
Orbit: 968 x 985 km, 82.9° (Epoch: 22 October)

Date Brightness Start Highest point End Pass type
(mag) Time Alt. Az. Time Alt. Az. Time Alt. Az.
23 Oct 5.5 09:53:38 10° NNE 09:59:12 36° E 10:04:52 10° SSE visible
24 Oct 6.7 08:39:05 10° E 08:40:41 11° ESE 08:42:18 10° ESE visible
24 Oct 4.6 10:18:37 10° N 10:24:43 59° E 10:30:54 10° SSE visible
25 Oct 6.3 09:01:35 10° ENE 09:05:49 19° ESE 09:10:04 10° SE visible
25 Oct 4.0 10:44:08 10° N 10:50:24 86° WSW 10:56:45 10° S visible
26 Oct 5.6 09:25:42 10° NE 09:31:06 32° E 09:36:34 10° SSE visible
26 Oct 4.3 11:10:09 10° NNW 11:16:14 53° WSW 11:22:26 10° S visible
27 Oct 4.7 09:50:33 10° NNE 09:56:34 53° E 10:02:40 10° SSE visible
28 Oct 6.3 08:33:54 10° ENE 08:37:46 17° ESE 08:41:37 10° SE visible
28 Oct 4.1 10:15:57 10° N 10:22:12 86° E 10:28:33 10° S visible
29 Oct 5.7 08:57:49 10° NE 09:03:00 28° E 09:08:16 10° SSE visible
29 Oct 4.2 10:41:51 10° NNW 10:48:01 60° WSW 10:54:17 10° S visible
30 Oct 4.9 09:22:31 10° NNE 09:28:26 47° E 09:34:26 10° SSE visible
31 Oct 6.3 08:06:19 10° ENE 08:09:42 15° ESE 08:13:06 10° SE visible
31 Oct 4.2 09:47:54 11° N 09:54:01 77° E 10:00:22 10° SSE visible
01 Nov 5.8 08:29:57 10° NE 08:34:55 25° E 08:39:55 10° SSE visible
01 Nov 4.1 10:13:45 11° NNW 10:19:47 67° WSW 10:26:07 10° S visible
